Change the Weather History Date:

Wednesday, October 1, 2014

  Actual Average Record
Temperature  
Mean Temperature 71 °F 67 °F  
Max Temperature 84 °F 78 °F 88 °F (1998)
Min Temperature 58 °F 57 °F 32 °F (1997)
Degree Days  
Heating Degree Days 0 2  
Month to date heating degree days 0 2  
Since 1 July heating degree days 0 12  
Cooling Degree Days 6 4  
Month to date cooling degree days 6 4  
Year to date cooling degree days 1698 1708  
Growing Degree Days 20 (Base 50)    
Moisture  
Dew Point 60 °F    
Average Humidity 70    
Maximum Humidity 100    
Minimum Humidity 40    
Precipitation  
Precipitation 0.00 in 0.19 in 1.78 in (2012)
Month to date precipitation 0.00 0.19  
Year to date precipitation 35.41 41.33  
Sea Level Pressure  
Sea Level Pressure 29.96 in    
Wind  
Wind Speed 1 mph (SE)    
Max Wind Speed 6 mph    
Max Gust Speed 9 mph    
Visibility 9 miles    
Events      
T = Trace of Precipitation, MM = Missing Value Source: NWS Daily Summary

Daily Weather History Graph

Daily Weather History Graph

Search for Another Location

Airport or City:

Trip Planner

Search our weather history database for the weather conditions in past years. The results will help you decide how hot, cold, wet, or windy it might be!

Date:

Astronomy

Oct. 01, 2014 Rise Set
Actual Time 7:31 AM EDT 7:21 PM EDT
Civil Twilight 7:06 AM EDT 7:46 PM EDT
Nautical Twilight 6:37 AM EDT 8:15 PM EDT
Astronomical Twilight 6:08 AM EDT 8:44 PM EDT
Moon 2:20 PM EDT (10/1) 12:04 AM EDT (10/1)
Length of Visible Light 12h 39m
Length of Day
11h 49m
Waxing Crescent, 48% of the Moon is Illuminated
Oct 1
Waxing Crescent
Oct 1
First Quarter
Oct 8
Full
Oct 15
Last Quarter
Oct 23
New

Hourly Weather History & Observations

Time (EDT) Temp. Heat Index Dew Point Humidity Pressure Visibility Wind Dir Wind Speed Gust Speed Precip Events Conditions
12:53 AM 66.0 °F - 64.0 °F 93% 29.94 in 10.0 mi NE 4.6 mph - N/A   Overcast
1:37 AM 66.2 °F - 62.6 °F 88% 29.96 in 10.0 mi Calm Calm - N/A   Overcast
1:49 AM 66.2 °F - 62.6 °F 88% 29.96 in 9.0 mi Calm Calm - N/A   Overcast
1:53 AM 66.0 °F - 64.0 °F 93% 29.94 in 9.0 mi Calm Calm - N/A   Overcast
2:53 AM 66.0 °F - 63.0 °F 90% 29.93 in 9.0 mi Calm Calm - N/A   Overcast
3:53 AM 64.9 °F - 62.1 °F 90% 29.92 in 8.0 mi Calm Calm - N/A   Overcast
4:53 AM 59.0 °F - 57.2 °F 94% 29.95 in 8.0 mi Calm Calm - N/A   Clear
5:53 AM 60.1 °F - 57.9 °F 93% 29.93 in 8.0 mi Calm Calm - 0.01 in   Clear
6:23 AM 59.0 °F - 57.2 °F 94% 29.97 in 2.0 mi Calm Calm - N/A   Clear
6:32 AM 60.8 °F - 57.2 °F 88% 29.97 in 8.0 mi Calm Calm - N/A   Clear
6:53 AM 60.1 °F - 57.9 °F 93% 29.94 in 8.0 mi Calm Calm - N/A   Clear
7:53 AM 57.9 °F - 57.0 °F 97% 29.97 in 10.0 mi Calm Calm - N/A   Clear
8:00 AM 59.0 °F - 57.2 °F 94% 30.00 in 2.5 mi Calm Calm - N/A   Clear
8:07 AM 60.8 °F - 60.8 °F 100% 30.00 in 10.0 mi Calm Calm - N/A   Clear
8:53 AM 66.0 °F - 62.1 °F 87% 29.99 in 10.0 mi Calm Calm - N/A   Clear
9:53 AM 71.1 °F - 63.0 °F 75% 29.99 in 7.0 mi Calm Calm - N/A   Clear
10:53 AM 72.0 °F - 61.0 °F 68% 29.95 in 10.0 mi Calm Calm - N/A   Scattered Clouds
11:53 AM 79.0 °F - 61.0 °F 54% 29.99 in 10.0 mi Calm Calm - N/A   Clear
12:53 PM 82.0 °F 82.1 °F 59.0 °F 45% 29.97 in 10.0 mi East 3.5 mph - N/A   Clear
1:53 PM 82.9 °F 82.1 °F 55.9 °F 39% 29.96 in 10.0 mi SSE 6.9 mph - N/A   Partly Cloudy
2:00 PM 80.6 °F 81.5 °F 60.8 °F 51% 29.94 in 10.0 mi NW 4.6 mph - N/A   Mostly Cloudy
2:53 PM 80.1 °F 80.1 °F 55.0 °F 42% 29.95 in 10.0 mi South 5.8 mph - N/A   Scattered Clouds
3:53 PM 82.9 °F 82.1 °F 55.9 °F 39% 29.94 in 10.0 mi Calm Calm - N/A   Mostly Cloudy
4:53 PM 79.0 °F - 61.0 °F 54% 29.94 in 10.0 mi Calm Calm - N/A   Partly Cloudy
5:53 PM 82.0 °F 81.4 °F 55.0 °F 39% 29.94 in 10.0 mi SSW 3.5 mph - N/A   Partly Cloudy
6:53 PM 75.9 °F - 60.1 °F 58% 29.95 in 9.0 mi SSE 3.5 mph - N/A   Clear
7:53 PM 69.1 °F - 63.0 °F 81% 29.88 in 7.0 mi Calm Calm - N/A   Partly Cloudy
8:53 PM 66.9 °F - 60.1 °F 79% 29.98 in 10.0 mi Calm Calm - N/A   Clear
9:53 PM 64.9 °F - 60.1 °F 84% 30.00 in 10.0 mi Calm Calm - N/A   Clear
10:53 PM 64.0 °F - 60.1 °F 87% 30.01 in 10.0 mi Calm Calm - N/A   Clear
11:53 PM 64.0 °F - 59.0 °F 84% 30.00 in 10.0 mi Calm Calm - N/A   Clear